[[{"header":{"parameterUnit":"m.s-1","parameterCategory":1,"la1":30.2991,"la2":30.254,"lo1":-89.0895,"lo2":-89.0444,"dy":0.0017,"dx":0.0017,"nx":28,"ny":28,"refTime":"2025-09-04T09:00:00:Z","depth":0,"parameterNumber":2,"parameterNumberName":"U-component_of_WINDS"},"data":[0,0,0,0,0,0,0,0,0,0,0,0,0,0,0,0,0,0,0,0,0,0,0,0,0,0,0,0,0,0,0,0,0,0,0,0,0,0,0,0,0,0,0,0,0,0,0,0,0,0,0,0,0,0,0,0,0,0,1.8432,1.8432,0,1.844,1.844,1.8441,1.8428,1.8427,1.8427,1.8427,1.8433,1.8434,1.8434,0,0,0,0,0,0,0,0,0,0,0,0,0,1.8403,1.8403,1.8432,1.8432,1.8433,1.844,1.844,1.8441,1.8428,1.8427,1.8427,1.8426,1.8433,1.8433,1.8434,0,0,0,0,0,0,0,0,0,0,0,0,0,1.8414,1.8404,1.8432,1.8427,1.8427,1.844,1.844,1.8441,1.8428,1.8427,1.8427,1.8426,1.8433,1.8433,1.8434,1.8453,0,0,1.8437,1.8437,0,0,0,0,0,0,0,0,1.8413,1.8415,1.8428,1.8428,1.8427,1.8432,1.8432,1.8445,1.8428,1.8428,1.8427,1.8426,1.8433,1.8434,1.8437,1.8453,1.8453,1.8437,1.8438,1.8438,1.8438,0,0,0,0,0,0,0,1.8412,1.8414,1.8435,1.8428,1.8428,1.8423,1.8424,1.8435,1.8434,1.8428,1.8427,1.8428,1.8433,1.8436,1.8437,1.8453,1.8437,1.8438,1.8438,1.8439,1.8482,1.8483,0,0,0,0,0,0,1.8413,1.8414,1.8435,1.8436,1.8418,1.8424,1.8425,1.8431,1.8434,1.8433,1.8428,1.8427,1.8435,1.8436,1.8437,1.8457,1.8438,1.8439,1.8439,1.8481,1.8482,1.8483,0,0,0,0,0,0,1.8412,1.8415,1.8435,1.8424,1.8427,1.8426,1.8432,1.8432,1.8435,1.8434,1.8434,1.8432,1.8434,1.8436,1.8448,1.8457,1.8439,1.844,1.8481,1.8482,1.8482,1.8498,0,0,0,0,0,0,1.8411,1.8414,1.8422,1.8425,1.8427,1.8447,1.8433,1.8433,1.8437,1.8435,1.8438,1.8437,1.8434,1.8447,1.8449,1.8458,1.8441,1.848,1.8481,1.8482,1.8496,1.8499,1.8501,0,0,0,0,0,1.841,1.8427,1.8423,1.8426,1.8437,1.8448,1.8449,1.8445,1.8438,1.8445,1.8444,1.8437,1.8456,1.8449,1.8451,1.846,1.8479,1.8481,1.8482,1.8495,1.8498,1.8501,0,0,0,0,0,0,1.8425,1.8427,1.8423,1.8441,1.8444,1.8445,1.8455,1.8449,1.8455,1.8453,1.8448,1.8448,1.8461,1.8462,1.8454,1.8476,1.8466,1.8468,1.8475,1.8478,1.8481,1.848,1.8441,0,0,0,0,0,1.8431,1.844,1.844,1.8456,1.8458,1.8456,1.846,1.8457,1.846,1.8461,1.8462,1.8464,1.847,1.8475,1.848,1.8497,1.8496,1.8504,1.8506,1.8508,1.8509,1.8516,1.8519,1.8487,1.8487,1.8487,0,0,1.8442,1.8444,1.845,1.8459,1.8461,1.8469,1.8457,1.8467,1.8472,1.8463,1.8474,1.8474,1.8477,1.849,1.8496,1.8491,1.8518,1.851,1.8511,1.8512,1.8517,1.852,1.8523,1.8488,1.8488,1.8488,0,0,1.8466,1.8469,1.8481,1.8484,1.8487,1.8485,1.8488,1.849,1.849,1.8501,1.8493,1.8499,1.8511,1.8512,1.8514,1.8537,1.853,1.8539,1.8551,1.8557,1.856,1.8562,1.8568,1.8571,1.854,1.8541,1.8541,0,1.8479,1.8492,1.8488,1.8498,1.8501,1.8493,1.8504,1.8506,1.8511,1.8513,1.8507,1.852,1.8521,1.8534,1.8539,1.8542,1.8544,1.8538,1.856,1.8562,1.8564,1.857,1.8572,1.8541,1.8541,1.8541,1.8541,0,1.8507,1.8516,1.8525,1.8529,1.8534,1.8544,1.8541,1.8546,1.8541,1.854,1.855,1.8551,1.8556,1.8559,1.8556,1.8571,1.8567,1.8561,1.855,1.8568,1.8573,1.8575,1.8543,1.8542,1.8542,1.8542,0,0,1.8541,1.8542,1.8546,1.8547,1.8549,1.8555,1.8564,1.8569,1.8572,1.8576,1.8582,1.8591,1.8585,1.8587,1.8583,1.8589,1.8604,1.8582,1.8581,1.8584,1.8619,1.8622,1.8625,1.86,1.86,1.8601,1.8618,0,1.8563,1.858,1.8576,1.8591,1.8598,1.8589,1.8597,1.8598,1.8597,1.8601,1.8599,1.8605,1.8597,1.8598,1.8603,1.8601,1.8611,1.86,1.8604,1.8605,1.8603,1.8628,1.8633,1.8649,1.862,1.862,1.8621,0,1.8592,1.8596,1.8612,1.8611,1.8614,1.8621,1.8623,1.8629,1.863,1.8628,1.863,1.8624,1.8632,1.8622,1.8631,1.8624,1.8625,1.8624,1.8625,1.8624,1.8613,1.8627,1.8654,1.8656,1.8624,1.8624,1.8624,0,1.8612,1.8622,1.8632,1.8633,1.8633,1.8638,1.8638,1.8639,1.8641,1.8643,1.8645,1.8648,1.8649,1.8651,1.8647,1.864,1.8656,1.8646,1.8653,1.8653,1.8656,1.8656,1.8682,1.8659,1.8659,1.8659,1.8659,0,1.8637,1.8647,1.8641,1.8647,1.8657,1.8652,1.8661,1.866,1.866,1.8665,1.8658,1.8663,1.8657,1.866,1.8656,1.8663,1.8665,1.8662,1.8661,1.8662,1.8662,1.8662,1.866,1.866,1.866,1.866,1.8659,0,1.8662,1.8658,1.8669,1.8667,1.8667,1.8674,1.8673,1.8677,1.8675,1.8681,1.8682,1.8678,1.8682,1.8677,1.8681,1.8678,1.8687,1.8685,1.8687,1.8685,1.8692,1.8691,1.8719,1.8722,1.8698,1.8698,1.8699,0,1.8677,1.8684,1.8683,1.8686,1.8686,1.8691,1.8693,1.8688,1.869,1.869,1.8695,1.8698,1.87,1.8706,1.8703,1.8705,1.8701,1.8711,1.8702,1.8702,1.87,1.8699,1.8698,1.8713,1.8713,1.8713,1.8713,0,1.8703,1.8701,1.8705,1.8707,1.871,1.8712,1.8713,1.8715,1.871,1.8712,1.8716,1.8718,1.872,1.8723,1.8724,1.8723,1.8716,1.8716,1.8718,1.8719,1.8719,1.8717,1.869,1.8715,1.8715,1.8715,1.8715,1.8715,1.8722,1.8727,1.8727,1.8731,1.8731,1.8732,1.8736,1.8733,1.8736,1.8738,1.8735,1.8739,1.8738,1.8738,1.8738,1.874,1.8736,1.8739,1.8739,1.8739,1.874,1.8719,1.8741,1.8741,1.874,1.874,1.874,0,1.8747,1.8746,1.8749,1.8751,1.8753,1.8748,1.8748,1.875,1.8754,1.8754,1.8756,1.8759,1.8761,1.8757,1.8759,1.8761,1.8758,1.8761,1.876,1.876,1.8744,1.8742,1.8764,1.8764,1.8764,1.8764,1.8764,1.8764,1.876,1.8767,1.8764,1.8771,1.877,1.8774,1.8775,1.8775,1.8774,1.8778,1.878,1.8778,1.8776,1.8776,1.8778,1.8776,1.8776,1.8781,1.8778,1.8764,1.8761,1.8759,1.8757,1.8781,1.8781,1.8793,1.8794,1.8794]},{"header":{"parameterUnit":"m.s-1","parameterCategory":1,"la1":30.2991,"la2":30.254,"lo1":-89.0895,"lo2":-89.0444,"dy":0.0017,"dx":0.0017,"nx":28,"ny":28,"refTime":"2025-09-04T09:00:00:Z","depth":0,"parameterNumber":3,"parameterNumberName":"V-component_of_WINDS"},"data":[0,0,0,0,0,0,0,0,0,0,0,0,0,0,0,0,0,0,0,0,0,0,0,0,0,0,0,0,0,0,0,0,0,0,0,0,0,0,0,0,0,0,0,0,0,0,0,0,0,0,0,0,0,0,0,0,0,0,1.1703,1.1704,0,1.1793,1.1794,1.1795,1.1786,1.1785,1.1783,1.1782,1.1874,1.1877,1.1881,0,0,0,0,0,0,0,0,0,0,0,0,0,1.1521,1.1524,1.1703,1.1704,1.1705,1.1793,1.1794,1.1795,1.1786,1.1785,1.1783,1.1781,1.1873,1.1877,1.1882,0,0,0,0,0,0,0,0,0,0,0,0,0,1.1604,1.1525,1.1702,1.1711,1.1713,1.1793,1.1794,1.1796,1.1787,1.1784,1.1782,1.178,1.1871,1.1877,1.1882,1.1959,0,0,1.1899,1.1902,0,0,0,0,0,0,0,0,1.1599,1.1611,1.1709,1.1711,1.1713,1.1776,1.1764,1.185,1.1787,1.1759,1.1782,1.1779,1.1843,1.1851,1.1872,1.1964,1.1968,1.19,1.1903,1.1906,1.1907,0,0,0,0,0,0,0,1.1594,1.1607,1.1738,1.171,1.1713,1.171,1.1719,1.178,1.1811,1.1761,1.176,1.1771,1.1844,1.1867,1.1874,1.1969,1.19,1.1905,1.1908,1.191,1.2125,1.2127,0,0,0,0,0,0,1.1586,1.1602,1.1736,1.1741,1.165,1.1715,1.1725,1.1758,1.1811,1.1817,1.1773,1.177,1.1858,1.1868,1.1878,1.197,1.1906,1.1911,1.1914,1.2123,1.2125,1.2128,0,0,0,0,0,0,1.1582,1.1598,1.1732,1.1672,1.1688,1.172,1.1757,1.1761,1.1784,1.182,1.1825,1.1791,1.1857,1.187,1.1938,1.1973,1.1914,1.1919,1.212,1.2124,1.2127,1.2155,0,0,0,0,0,0,1.1577,1.1597,1.1627,1.1672,1.1692,1.1792,1.1759,1.1764,1.1794,1.1791,1.1838,1.1844,1.1856,1.193,1.1944,1.198,1.1923,1.2117,1.2122,1.2126,1.2152,1.2159,1.2166,0,0,0,0,0,1.157,1.1632,1.1629,1.1645,1.173,1.1794,1.1805,1.1818,1.1797,1.1827,1.1849,1.1843,1.1967,1.1937,1.1953,1.1991,1.2115,1.212,1.2125,1.2148,1.2158,1.2166,0,0,0,0,0,0,1.159,1.1638,1.1635,1.1713,1.1749,1.1792,1.1831,1.1828,1.1871,1.1867,1.1881,1.1892,1.1961,1.1983,1.1949,1.2066,1.2038,1.2046,1.205,1.2059,1.2067,1.206,1.1928,0,0,0,0,0,1.1604,1.1652,1.1691,1.1756,1.1774,1.1799,1.1828,1.1834,1.1873,1.1888,1.1916,1.1953,1.2,1.2031,1.2077,1.2154,1.2164,1.2188,1.2195,1.2201,1.2208,1.2249,1.226,1.2145,1.2145,1.2145,0,0,1.1632,1.1664,1.1694,1.1761,1.179,1.1838,1.1813,1.1866,1.1902,1.1896,1.1962,1.1984,1.2026,1.2099,1.2133,1.2119,1.2242,1.2208,1.2212,1.2216,1.2255,1.2266,1.2276,1.2149,1.2148,1.2147,0,0,1.1709,1.1738,1.1795,1.1824,1.1868,1.1884,1.1897,1.194,1.1954,1.2021,1.2017,1.2059,1.2141,1.217,1.2196,1.2281,1.2275,1.2295,1.2333,1.2373,1.2382,1.239,1.2418,1.2429,1.2302,1.2302,1.2302,0,1.1738,1.1812,1.1824,1.1877,1.1906,1.1902,1.1959,1.1986,1.2043,1.2062,1.2047,1.2147,1.2175,1.2254,1.2275,1.2296,1.2311,1.229,1.2379,1.2388,1.2395,1.2423,1.2434,1.2304,1.2304,1.2304,1.2304,0,1.1846,1.1897,1.1937,1.199,1.2024,1.2078,1.2098,1.213,1.2133,1.215,1.2216,1.225,1.2301,1.232,1.2324,1.2399,1.2389,1.2376,1.2348,1.2408,1.2434,1.2445,1.2307,1.2306,1.2306,1.2305,0,0,1.1939,1.1997,1.2011,1.2034,1.2081,1.2121,1.2174,1.2224,1.225,1.2289,1.2333,1.2401,1.2388,1.2418,1.2425,1.2459,1.2522,1.2442,1.2443,1.2454,1.2604,1.2613,1.2625,1.2519,1.2521,1.2522,1.26,0,1.2019,1.2114,1.2125,1.2209,1.2255,1.2251,1.2297,1.233,1.2347,1.2388,1.2407,1.2454,1.2435,1.2452,1.2486,1.2507,1.2552,1.2502,1.2559,1.2561,1.2548,1.2639,1.265,1.2722,1.2611,1.2613,1.2614,0,1.2125,1.2166,1.2254,1.2293,1.2312,1.2354,1.2399,1.2439,1.2475,1.2485,1.2516,1.2518,1.2572,1.2541,1.2614,1.258,1.2604,1.2617,1.262,1.2626,1.2591,1.2646,1.2745,1.2756,1.263,1.2629,1.2628,0,1.2182,1.2259,1.2321,1.2342,1.2388,1.2417,1.2438,1.2473,1.2501,1.254,1.2559,1.2604,1.2628,1.2663,1.2676,1.2653,1.2748,1.2719,1.2757,1.2756,1.2777,1.2775,1.288,1.2794,1.2793,1.2793,1.2793,0,1.227,1.2324,1.2347,1.2386,1.2445,1.2457,1.2515,1.2535,1.2565,1.2606,1.2606,1.2644,1.266,1.27,1.2711,1.2769,1.2781,1.2789,1.2791,1.2789,1.2788,1.2804,1.2799,1.2796,1.2795,1.2795,1.2794,0,1.2345,1.2362,1.2429,1.2468,1.2478,1.252,1.2552,1.2589,1.2604,1.2656,1.2669,1.2693,1.2741,1.2758,1.2816,1.2823,1.289,1.2888,1.2877,1.2877,1.2914,1.291,1.3033,1.3049,1.2952,1.2953,1.2954,0,1.2399,1.244,1.2482,1.2509,1.2531,1.2575,1.2604,1.2616,1.2646,1.2689,1.272,1.2767,1.2805,1.2881,1.2904,1.2947,1.2946,1.2986,1.2953,1.2948,1.2945,1.2942,1.2945,1.2992,1.2993,1.2994,1.2994,0,1.2494,1.25,1.2541,1.2585,1.2618,1.2654,1.2687,1.271,1.2727,1.276,1.2808,1.2838,1.2896,1.2942,1.2986,1.3007,1.3003,1.3005,1.3015,1.3013,1.3005,1.3008,1.2893,1.3002,1.3001,1.3001,1.3,1.3,1.2559,1.2595,1.2629,1.2674,1.2701,1.2732,1.2767,1.2786,1.2827,1.2875,1.288,1.2931,1.2965,1.3024,1.3046,1.3086,1.3075,1.3091,1.3095,1.3098,1.31,1.2999,1.3094,1.3094,1.3094,1.3093,1.3093,0,1.2653,1.2674,1.2716,1.2762,1.2797,1.279,1.2827,1.2856,1.2902,1.2933,1.297,1.3025,1.3069,1.3094,1.3138,1.3165,1.3164,1.3176,1.3174,1.3178,1.3108,1.3094,1.3175,1.3175,1.3175,1.3175,1.3175,1.3175,1.2706,1.2765,1.2774,1.2846,1.2867,1.2917,1.2938,1.2966,1.2991,1.3052,1.3088,1.3104,1.3133,1.3178,1.3218,1.3224,1.324,1.3252,1.3257,1.3192,1.3183,1.3175,1.3162,1.3256,1.3256,1.3323,1.3324,1.3324]}]]